Home > Weather > Vestby > Past weeks

Flag for Norway Past Weather in Vestby, Norway — Yesterday and Last 2 Weeks

Now
57 °F

Passing clouds.


Feels Like: 55 °F
Forecast: 52 / 60 °F
Wind: 10 mph from Southeast

Location: Rygge

Current Time: Jun 30, 2016 at 3:51:33 AM

Latest Report: Jun 30, 2016 at 3:20 AM


Visibility: N/A

Pressure: 29.71 "Hg

Humidity: 88%

Dew Point: 54 °F

Location of VestbyLocation

Past Weather in Vestby — Graph

°F

Vestby Temperature Yesterday

Maximum temperature yesterday: 66 °F (at 4:50 PM)
Minimum temperature yesterday: 55 °F (at 3:50 AM)
Average temperature yesterday: 60 °F

High & Low Weather Summary for the Past Weeks

 TemperatureHumidityPressure
High73 °F (Jun 16, 1:50 PM)100% (Jun 15, 9:20 PM)30.18 "Hg (Jun 15, 9:20 PM)
Low50 °F (Jun 19, 8:20 AM)38% (Jun 16, 1:20 PM)29.56 "Hg (Jun 16, 6:20 PM)
Average61 °F81%29.83 "Hg
* Reported Jun 15 2:20 AM — Jun 30 2:20 AM, Vestby, Weather by CustomWeather, © 2016

Note: Actual official high and low records may vary slightly from our data, if they occured in-between our weather recording intervals... More about our weather records

Advertising

Vestby Weather History for the Previous 24 Hours

Scroll right to see more
 ConditionsComfort  
Time TempWeatherWind HumidityBarometerVisibility
2:20 AM
Thu, Jun 30
57 °FMostly cloudy.10 mph88%29.71 "HgN/A
1:50 AM57 °FLight rain. Mostly cloudy.9 mph88%29.71 "HgN/A
1:20 AM57 °FMostly cloudy.7 mph88%29.74 "HgN/A
12:50 AM57 °FMostly cloudy.8 mph88%29.74 "HgN/A
12:20 AM57 °FMostly cloudy.8 mph88%29.74 "HgN/A
11:50 PM
Wed, Jun 29
57 °FPassing clouds.6 mph88%29.74 "HgN/A
11:20 PM57 °FPartly sunny.6 mph94%29.77 "HgN/A
10:50 PM57 °FPartly sunny.5 mph88%29.77 "HgN/A
10:20 PM57 °FPartly sunny.5 mph88%29.77 "HgN/A
9:50 PM57 °FBroken clouds.7 mph88%29.77 "HgN/A
9:20 PM57 °FPartly sunny.6 mph88%29.77 "HgN/A
8:50 PM59 °FLight rain. Broken clouds.6 mph77%29.77 "HgN/A
8:20 PM59 °FPartly sunny.10 mph77%29.77 "HgN/A
7:50 PM59 °FPartly sunny.5 mph88%29.77 "HgN/A
7:20 PM59 °FPartly sunny.3 mph82%29.77 "HgN/A
6:50 PM59 °FScattered clouds.2 mph82%29.77 "HgN/A
6:20 PM63 °FLight rain. Broken clouds.3 mph68%29.77 "HgN/A
5:50 PM64 °FBroken clouds.2 mph60%29.77 "HgN/A
5:20 PM64 °FBroken clouds.5 mph60%29.77 "HgN/A
4:50 PM66 °FPartly sunny.1 mph56%29.80 "HgN/A
3:50 PM61 °FPartly sunny.5 mph77%29.80 "HgN/A
3:20 PM63 °FMostly cloudy.3 mph59%29.83 "HgN/A
2:50 PM64 °FPartly sunny.6 mph56%29.83 "HgN/A
2:20 PM64 °FPartly sunny.6 mph52%29.83 "HgN/A
1:50 PM63 °FPartly sunny.6 mph59%29.83 "HgN/A
1:20 PM63 °FPartly sunny.7 mph64%29.83 "HgN/A
12:50 PM64 °FPartly sunny.6 mph60%29.83 "HgN/A
12:20 PM64 °FPartly sunny.5 mph60%29.83 "HgN/A
11:50 AM63 °FPartly sunny.7 mph59%29.86 "HgN/A
11:20 AM63 °FScattered clouds.6 mph64%29.86 "HgN/A
10:50 AM63 °FScattered clouds.7 mph64%29.86 "HgN/A
10:20 AM63 °FScattered clouds.8 mph68%29.86 "HgN/A
9:50 AM63 °FScattered clouds.8 mph68%29.86 "HgN/A
9:20 AM63 °FScattered clouds.9 mph68%29.86 "HgN/A
8:50 AM61 °FScattered clouds.10 mph68%29.86 "HgN/A
8:20 AM61 °FScattered clouds.9 mph63%29.86 "HgN/A
7:50 AM59 °FScattered clouds.9 mph72%29.86 "HgN/A
7:20 AM59 °FScattered clouds.9 mph72%29.86 "HgN/A
6:20 AM59 °FPassing clouds.6 mph77%29.86 "HgN/A
5:50 AM59 °FPassing clouds.9 mph72%29.86 "HgN/A
5:20 AM57 °FScattered clouds.7 mph77%29.86 "HgN/A
4:50 AM55 °FPassing clouds.8 mph82%29.86 "HgN/A
4:20 AM55 °FPassing clouds.7 mph82%29.86 "HgN/A
3:50 AM55 °FCool.9 mph82%29.86 "HgN/A
3:20 AM57 °FCool.8 mph82%29.86 "HgN/A
Weather by CustomWeather, © 2016

See weather overviewHow to use our weather pages